IBE0566 LEMG-LEMD

Flight info

Callsign IBE0566
Flight time 0h 49m
Altitude 32000
Route BLN DCT MORAL
Aircraft A20N/M-SDE2E3FGHIRWXY/LB1

Departure

Time 2026-05-06 16:25
Airport Málaga-Costa del Sol Airport (LEMG)

Arrival

Time 2026-05-06 17:14
Airport Adolfo Suárez Madrid–Barajas Airport (LEMD)
Time Latitude Longitude Altitude Speed Heading
2026-05-06 16:04 36.67862 -4.49460 42 ft 0 kts 213°
2026-05-06 16:14 36.67865 -4.49458 41 ft 2 kts 210°
2026-05-06 16:14 36.67875 -4.49451 41 ft 2 kts 211°
2026-05-06 16:14 36.67889 -4.49440 38 ft 2 kts 213°
2026-05-06 16:14 36.67902 -4.49427 41 ft 2 kts 238°
2026-05-06 16:15 36.67904 -4.49408 39 ft 2 kts 296°
2026-05-06 16:15 36.67896 -4.49391 40 ft 2 kts 308°
2026-05-06 16:15 36.67890 -4.49383 40 ft 1 kts 310°
2026-05-06 16:15 36.67888 -4.49379 40 ft 0 kts 310°
2026-05-06 16:18 36.67896 -4.49391 40 ft 5 kts 310°
2026-05-06 16:18 36.67937 -4.49449 41 ft 12 kts 311°
2026-05-06 16:18 36.68005 -4.49544 41 ft 16 kts 309°
2026-05-06 16:19 36.67997 -4.49632 41 ft 8 kts 223°
2026-05-06 16:19 36.67947 -4.49688 41 ft 11 kts 220°
2026-05-06 16:19 36.67884 -4.49758 42 ft 14 kts 221°
2026-05-06 16:19 36.67806 -4.49843 42 ft 16 kts 224°
2026-05-06 16:20 36.67812 -4.49923 42 ft 9 kts 311°
2026-05-06 16:20 36.67862 -4.49994 42 ft 13 kts 312°
2026-05-06 16:20 36.67929 -4.50087 42 ft 16 kts 311°
2026-05-06 16:20 36.68010 -4.50201 42 ft 19 kts 311°
2026-05-06 16:21 36.68104 -4.50334 42 ft 21 kts 310°
2026-05-06 16:21 36.68193 -4.50451 42 ft 16 kts 311°
2026-05-06 16:21 36.68271 -4.50560 42 ft 15 kts 311°
2026-05-06 16:21 36.68317 -4.50625 43 ft 11 kts 311°
2026-05-06 16:22 36.68328 -4.50711 44 ft 10 kts 238°
2026-05-06 16:22 36.68325 -4.50781 47 ft 7 kts 298°
2026-05-06 16:22 36.68357 -4.50829 48 ft 8 kts 311°
2026-05-06 16:22 36.68402 -4.50892 49 ft 11 kts 311°
2026-05-06 16:23 36.68456 -4.50970 50 ft 13 kts 310°
2026-05-06 16:23 36.68503 -4.51062 51 ft 12 kts 274°
2026-05-06 16:23 36.68461 -4.51127 58 ft 9 kts 200°
2026-05-06 16:23 36.68405 -4.51139 59 ft 8 kts 186°
2026-05-06 16:24 36.68334 -4.51090 60 ft 23 kts 131°
2026-05-06 16:24 36.68100 -4.50765 51 ft 83 kts 132°
2026-05-06 16:24 36.67589 -4.50049 52 ft 135 kts 131°
2026-05-06 16:24 36.66897 -4.49068 330 ft 150 kts 131°
2026-05-06 16:25 36.66226 -4.48078 840 ft 158 kts 131°
2026-05-06 16:25 36.65473 -4.46973 1262 ft 171 kts 132°
2026-05-06 16:25 36.64668 -4.45846 1788 ft 177 kts 134°
2026-05-06 16:25 36.63793 -4.44651 2144 ft 194 kts 133°
2026-05-06 16:26 36.62836 -4.43345 2471 ft 216 kts 133°
2026-05-06 16:26 36.61763 -4.41876 2885 ft 237 kts 133°
2026-05-06 16:26 36.60661 -4.40348 3779 ft 241 kts 129°
2026-05-06 16:26 36.59828 -4.38545 4773 ft 242 kts 107°
2026-05-06 16:27 36.59463 -4.36508 5704 ft 245 kts 98°
2026-05-06 16:27 36.59136 -4.34392 6627 ft 251 kts 99°
2026-05-06 16:27 36.58788 -4.32242 7502 ft 256 kts 101°
2026-05-06 16:27 36.58439 -4.30030 8379 ft 261 kts 95°
2026-05-06 16:28 36.58655 -4.27784 9233 ft 265 kts 66°
2026-05-06 16:28 36.59625 -4.25844 10000 ft 273 kts 50°
2026-05-06 16:28 36.60873 -4.23975 10644 ft 283 kts 47°
2026-05-06 16:28 36.62155 -4.22139 11484 ft 285 kts 43°
2026-05-06 16:29 36.63744 -4.20656 12307 ft 286 kts 24°
2026-05-06 16:29 36.65631 -4.19798 13085 ft 291 kts 14°
2026-05-06 16:29 36.67628 -4.19028 13409 ft 315 kts 14°
2026-05-06 16:29 36.69790 -4.18161 13673 ft 339 kts 15°
2026-05-06 16:30 36.72127 -4.17207 13919 ft 361 kts 15°
2026-05-06 16:30 36.73740 -4.16566 14253 ft 368 kts 15°
2026-05-06 16:30 36.76995 -4.15296 15255 ft 372 kts 14°
2026-05-06 16:30 36.79482 -4.14330 15977 ft 377 kts 14°
2026-05-06 16:31 36.82023 -4.13339 16684 ft 381 kts 14°
2026-05-06 16:31 36.84570 -4.12344 17393 ft 386 kts 14°
2026-05-06 16:31 36.87100 -4.11354 18085 ft 390 kts 14°
2026-05-06 16:31 36.89701 -4.10336 18711 ft 394 kts 14°
2026-05-06 16:32 36.92380 -4.09286 19333 ft 399 kts 14°
2026-05-06 16:32 36.95010 -4.08255 19946 ft 403 kts 14°
2026-05-06 16:32 36.97707 -4.07197 20535 ft 407 kts 14°
2026-05-06 16:32 37.00425 -4.06130 21148 ft 411 kts 13°
2026-05-06 16:33 37.03174 -4.05051 21697 ft 416 kts 13°
2026-05-06 16:33 37.05917 -4.03973 22277 ft 420 kts 13°
2026-05-06 16:33 37.08774 -4.02850 22865 ft 424 kts 13°
2026-05-06 16:34 37.14423 -4.00627 23911 ft 432 kts 13°
2026-05-06 16:34 37.17320 -3.99487 24364 ft 436 kts 13°
2026-05-06 16:34 37.20240 -3.98345 24814 ft 440 kts 12°
2026-05-06 16:34 37.23157 -3.97252 25263 ft 443 kts 12°
2026-05-06 16:35 37.26133 -3.96153 25703 ft 447 kts 12°
2026-05-06 16:35 37.29130 -3.95045 26132 ft 451 kts 12°
2026-05-06 16:35 37.32108 -3.93939 26573 ft 454 kts 12°
2026-05-06 16:35 37.35162 -3.92799 26988 ft 458 kts 12°
2026-05-06 16:36 37.38240 -3.91647 27384 ft 461 kts 11°
2026-05-06 16:36 37.41330 -3.90488 27783 ft 465 kts 11°
2026-05-06 16:36 37.44427 -3.89326 28142 ft 468 kts 11°
2026-05-06 16:36 37.47563 -3.88148 28508 ft 471 kts 11°
2026-05-06 16:37 37.50706 -3.86965 28892 ft 474 kts 11°
2026-05-06 16:37 37.53892 -3.85766 29236 ft 478 kts 11°
2026-05-06 16:37 37.57081 -3.84566 29553 ft 481 kts 11°
2026-05-06 16:37 37.60318 -3.83345 29915 ft 484 kts 11°
2026-05-06 16:38 37.63553 -3.82125 30226 ft 486 kts 11°
2026-05-06 16:38 37.66772 -3.80910 30484 ft 490 kts 11°
2026-05-06 16:38 37.70058 -3.79667 30869 ft 491 kts 11°
2026-05-06 16:38 37.73331 -3.78427 31229 ft 492 kts 11°
2026-05-06 16:39 37.76643 -3.77171 31636 ft 492 kts 11°
2026-05-06 16:39 37.79884 -3.75942 31836 ft 490 kts 10°
2026-05-06 16:39 37.83169 -3.74696 31863 ft 489 kts 10°
2026-05-06 16:40 37.89658 -3.72232 31860 ft 488 kts 10°
2026-05-06 16:40 37.96144 -3.69765 31860 ft 488 kts 10°
2026-05-06 16:41 38.02658 -3.67282 31857 ft 488 kts 10°
2026-05-06 16:41 38.09169 -3.64794 31857 ft 488 kts 10°
2026-05-06 16:42 38.15685 -3.62569 31858 ft 480 kts
2026-05-06 16:42 38.22265 -3.61807 31854 ft 474 kts 356°
2026-05-06 16:43 38.28874 -3.61162 31859 ft 474 kts 356°
2026-05-06 16:43 38.35419 -3.60520 31868 ft 474 kts 356°
2026-05-06 16:44 38.42020 -3.59880 31875 ft 473 kts 356°
2026-05-06 16:44 38.48563 -3.59247 31872 ft 473 kts 356°
2026-05-06 16:45 38.55115 -3.58607 31875 ft 465 kts 356°
2026-05-06 16:45 38.61582 -3.57980 31872 ft 473 kts 356°
2026-05-06 16:46 38.68152 -3.57339 31869 ft 469 kts 356°
2026-05-06 16:46 38.74640 -3.56704 31874 ft 469 kts 356°
2026-05-06 16:47 38.81132 -3.56067 31873 ft 468 kts 356°
2026-05-06 16:47 38.87632 -3.55431 31664 ft 468 kts 356°
2026-05-06 16:47 38.90878 -3.55112 31423 ft 467 kts 356°
2026-05-06 16:48 38.94099 -3.54796 30974 ft 468 kts 356°
2026-05-06 16:48 38.97326 -3.54674 30398 ft 457 kts 348°
2026-05-06 16:48 39.00382 -3.55332 29780 ft 440 kts 335°
2026-05-06 16:48 39.03168 -3.56778 29284 ft 420 kts 324°
2026-05-06 16:49 39.05600 -3.58707 28773 ft 408 kts 320°
2026-05-06 16:49 39.08005 -3.60676 28261 ft 402 kts 320°
2026-05-06 16:49 39.10361 -3.62587 27768 ft 396 kts 320°
2026-05-06 16:49 39.12643 -3.64432 27300 ft 390 kts 321°
2026-05-06 16:50 39.14927 -3.66281 26805 ft 384 kts 321°
2026-05-06 16:50 39.17185 -3.68112 26329 ft 379 kts 321°
2026-05-06 16:50 39.19395 -3.69905 25882 ft 374 kts 321°
2026-05-06 16:50 39.20870 -3.71104 25553 ft 371 kts 320°
2026-05-06 16:51 39.23751 -3.73446 24930 ft 365 kts 320°
2026-05-06 16:51 39.25887 -3.75184 24476 ft 361 kts 320°
2026-05-06 16:51 39.27970 -3.76881 24001 ft 358 kts 320°
2026-05-06 16:51 39.30073 -3.78595 23567 ft 354 kts 321°
2026-05-06 16:52 39.32151 -3.80289 23087 ft 350 kts 320°
2026-05-06 16:52 39.34206 -3.81964 22635 ft 345 kts 321°
2026-05-06 16:52 39.36243 -3.83637 22202 ft 363 kts 321°
2026-05-06 16:52 39.38435 -3.85448 21723 ft 381 kts 321°
2026-05-06 16:53 39.40691 -3.87300 21219 ft 386 kts 322°
2026-05-06 16:53 39.42975 -3.89165 20729 ft 383 kts 322°
2026-05-06 16:53 39.45188 -3.90967 20355 ft 374 kts 322°
2026-05-06 16:53 39.47368 -3.92745 19979 ft 364 kts 323°
2026-05-06 16:54 39.49475 -3.94468 19627 ft 356 kts 323°
2026-05-06 16:54 39.51552 -3.96172 19268 ft 351 kts 323°
2026-05-06 16:54 39.53611 -3.97869 18909 ft 353 kts 323°
2026-05-06 16:54 39.55687 -3.99580 18540 ft 352 kts 323°
2026-05-06 16:55 39.57741 -4.01272 18179 ft 348 kts 323°
2026-05-06 16:55 39.59784 -4.02954 17795 ft 347 kts 324°
2026-05-06 16:55 39.61815 -4.04627 17429 ft 348 kts 324°
2026-05-06 16:55 39.63869 -4.06311 17077 ft 349 kts 326°
2026-05-06 16:56 39.66154 -4.07472 16710 ft 354 kts 345°
2026-05-06 16:56 39.68595 -4.07598 16357 ft 362 kts
2026-05-06 16:56 39.71030 -4.06634 15979 ft 370 kts 23°
2026-05-06 16:56 39.72477 -4.05418 15732 ft 374 kts 36°
2026-05-06 16:57 39.74956 -4.02248 15216 ft 373 kts 43°
2026-05-06 16:57 39.76743 -3.99827 14836 ft 369 kts 43°
2026-05-06 16:57 39.77918 -3.98237 14587 ft 368 kts 43°
2026-05-06 16:57 39.79700 -3.95841 14207 ft 365 kts 43°
2026-05-06 16:58 39.82037 -3.92724 13731 ft 362 kts 43°
2026-05-06 16:58 39.83233 -3.91135 13472 ft 361 kts 43°
2026-05-06 16:58 39.84965 -3.88834 13179 ft 358 kts 43°
2026-05-06 16:58 39.86724 -3.86497 12876 ft 358 kts 43°
2026-05-06 16:59 39.88450 -3.84204 12534 ft 357 kts 43°
2026-05-06 16:59 39.90185 -3.81899 12189 ft 354 kts 43°
2026-05-06 16:59 39.91856 -3.79674 11957 ft 348 kts 43°
2026-05-06 16:59 39.93565 -3.77396 11797 ft 334 kts 43°
2026-05-06 17:00 39.95128 -3.75306 11618 ft 315 kts 43°
2026-05-06 17:00 39.96620 -3.73310 11442 ft 297 kts 43°
2026-05-06 17:00 39.98025 -3.71432 11231 ft 282 kts 43°
2026-05-06 17:00 39.99387 -3.69616 10783 ft 278 kts 43°
2026-05-06 17:01 40.00716 -3.67843 10280 ft 276 kts 43°
2026-05-06 17:01 40.02055 -3.66055 9824 ft 273 kts 43°
2026-05-06 17:01 40.03269 -3.64213 9542 ft 274 kts 59°
2026-05-06 17:01 40.03850 -3.61767 9268 ft 284 kts 85°
2026-05-06 17:02 40.03907 -3.59222 8994 ft 282 kts 88°
2026-05-06 17:02 40.03942 -3.56664 8704 ft 279 kts 88°
2026-05-06 17:02 40.03974 -3.54159 8423 ft 275 kts 88°
2026-05-06 17:02 40.04000 -3.51668 8150 ft 273 kts 88°
2026-05-06 17:03 40.04028 -3.49203 8023 ft 275 kts 88°
2026-05-06 17:03 40.04053 -3.46710 7936 ft 275 kts 88°
2026-05-06 17:03 40.04077 -3.44182 7887 ft 277 kts 88°
2026-05-06 17:03 40.04101 -3.41685 7833 ft 276 kts 88°
2026-05-06 17:04 40.04285 -3.39234 7769 ft 271 kts 70°
2026-05-06 17:04 40.05184 -3.37084 7667 ft 269 kts 51°
2026-05-06 17:04 40.06302 -3.35109 7459 ft 270 kts 50°
2026-05-06 17:04 40.07413 -3.33149 7215 ft 266 kts 50°
2026-05-06 17:05 40.08496 -3.31235 6973 ft 262 kts 51°
2026-05-06 17:05 40.09744 -3.29530 6719 ft 258 kts 28°
2026-05-06 17:05 40.11387 -3.28708 6484 ft 249 kts 10°
2026-05-06 17:05 40.13056 -3.28145 6229 ft 243 kts 11°
2026-05-06 17:06 40.14621 -3.27622 6059 ft 228 kts 10°
2026-05-06 17:06 40.16116 -3.27109 5900 ft 216 kts 10°
2026-05-06 17:06 40.17587 -3.26594 5752 ft 222 kts 10°
2026-05-06 17:06 40.19073 -3.26122 5594 ft 217 kts 360°
2026-05-06 17:07 40.20499 -3.26482 5437 ft 207 kts 326°
2026-05-06 17:07 40.21636 -3.27607 5305 ft 207 kts 317°
2026-05-06 17:07 40.22770 -3.28785 5160 ft 208 kts 319°
2026-05-06 17:07 40.23911 -3.29942 5021 ft 207 kts 319°
2026-05-06 17:08 40.25040 -3.31077 5008 ft 204 kts 319°
2026-05-06 17:08 40.26177 -3.32222 5007 ft 207 kts 320°
2026-05-06 17:08 40.27242 -3.33293 4996 ft 206 kts 320°
2026-05-06 17:08 40.28379 -3.34432 4999 ft 208 kts 320°
2026-05-06 17:09 40.29532 -3.35595 5006 ft 209 kts 319°
2026-05-06 17:09 40.30681 -3.36758 5005 ft 207 kts 319°
2026-05-06 17:09 40.31800 -3.37898 4995 ft 206 kts 319°
2026-05-06 17:09 40.32957 -3.38994 5004 ft 206 kts 320°
2026-05-06 17:10 40.34077 -3.40132 5005 ft 204 kts 319°
2026-05-06 17:10 40.35172 -3.41234 4989 ft 190 kts 319°
2026-05-06 17:10 40.36205 -3.42285 4729 ft 192 kts 319°
2026-05-06 17:10 40.37282 -3.43379 4433 ft 192 kts 319°
2026-05-06 17:11 40.38299 -3.44404 4171 ft 177 kts 318°
2026-05-06 17:11 40.39234 -3.45357 3922 ft 164 kts 319°
2026-05-06 17:11 40.40117 -3.46252 3716 ft 163 kts 318°
2026-05-06 17:11 40.41032 -3.47187 3487 ft 165 kts 319°
2026-05-06 17:12 40.41887 -3.48052 3291 ft 150 kts 318°
2026-05-06 17:12 40.42689 -3.48870 3077 ft 136 kts 320°
2026-05-06 17:12 40.43431 -3.49624 2899 ft 141 kts 321°
2026-05-06 17:12 40.44242 -3.50448 2696 ft 149 kts 322°
2026-05-06 17:13 40.45057 -3.51276 2493 ft 149 kts 323°
2026-05-06 17:13 40.45865 -3.52097 2302 ft 147 kts 323°
2026-05-06 17:13 40.46674 -3.52922 2105 ft 146 kts 323°
2026-05-06 17:13 40.47469 -3.53729 2002 ft 144 kts 323°
2026-05-06 17:14 40.48163 -3.54436 1980 ft 99 kts 322°
2026-05-06 17:14 40.48554 -3.54832 1984 ft 49 kts 322°
2026-05-06 17:14 40.48767 -3.55076 1980 ft 38 kts 301°
2026-05-06 17:14 40.48857 -3.55386 1982 ft 31 kts 292°
2026-05-06 17:15 40.48949 -3.55526 1980 ft 18 kts 320°
2026-05-06 17:15 40.49035 -3.55614 1982 ft 14 kts 323°
2026-05-06 17:15 40.49110 -3.55690 1980 ft 14 kts 321°
2026-05-06 17:15 40.49186 -3.55766 1983 ft 15 kts 322°
2026-05-06 17:16 40.49256 -3.55838 1984 ft 10 kts 322°
2026-05-06 17:16 40.49300 -3.55917 1982 ft 11 kts 284°
2026-05-06 17:16 40.49300 -3.56020 1980 ft 12 kts 270°
2026-05-06 17:16 40.49300 -3.56142 1980 ft 15 kts 270°
2026-05-06 17:17 40.49299 -3.56159 1983 ft 0 kts 253°
2026-05-06 17:17 40.49291 -3.56160 1982 ft 3 kts 191°
2026-05-06 17:17 40.49235 -3.56144 1980 ft 13 kts 174°
2026-05-06 17:17 40.49127 -3.56144 1980 ft 17 kts 180°
2026-05-06 17:18 40.48997 -3.56144 1980 ft 20 kts 180°
2026-05-06 17:18 40.48848 -3.56143 1980 ft 22 kts 179°
2026-05-06 17:18 40.48771 -3.56188 1984 ft 11 kts 253°
2026-05-06 17:18 40.48769 -3.56298 1983 ft 13 kts 270°
2026-05-06 17:19 40.48768 -3.56431 1981 ft 16 kts 270°
2026-05-06 17:19 40.48768 -3.56591 1980 ft 19 kts 270°
2026-05-06 17:19 40.48767 -3.56777 1981 ft 21 kts 270°
2026-05-06 17:19 40.48766 -3.56977 1980 ft 22 kts 269°
2026-05-06 17:20 40.48766 -3.57191 1981 ft 24 kts 270°
2026-05-06 17:20 40.48766 -3.57412 1980 ft 25 kts 270°
2026-05-06 17:20 40.48765 -3.57630 1980 ft 24 kts 269°
2026-05-06 17:20 40.48763 -3.57851 1980 ft 22 kts 269°
2026-05-06 17:21 40.48707 -3.57935 1980 ft 12 kts 181°
2026-05-06 17:21 40.48613 -3.57931 1980 ft 15 kts 171°
2026-05-06 17:21 40.48523 -3.57931 1980 ft 11 kts 225°
2026-05-06 17:21 40.48513 -3.58035 1980 ft 12 kts 269°
2026-05-06 17:22 40.48513 -3.58160 1980 ft 15 kts 269°
2026-05-06 17:22 40.48512 -3.58306 1980 ft 17 kts 270°
2026-05-06 17:22 40.48512 -3.58471 1980 ft 18 kts 270°
2026-05-06 17:22 40.48511 -3.58648 1980 ft 19 kts 270°
2026-05-06 17:23 40.48531 -3.58814 1982 ft 15 kts 331°
2026-05-06 17:23 40.48609 -3.58821 1981 ft 11 kts
2026-05-06 17:23 40.48694 -3.58821 1980 ft 13 kts
2026-05-06 17:23 40.48766 -3.58870 1981 ft 11 kts 285°
2026-05-06 17:24 40.48820 -3.58902 1980 ft 8 kts 358°
2026-05-06 17:24 40.48873 -3.58906 1982 ft 5 kts 339°
2026-05-06 17:24 40.48880 -3.58955 1981 ft 7 kts 271°
2026-05-06 17:24 40.48880 -3.58990 1983 ft 0 kts 269°
2026-05-06 17:25 40.48880 -3.58991 1983 ft 0 kts 269°